Location: Unspecified
(0.0000°N, 0.0000°E)
Time: 17:22:08
(UTC+00:00)

ARIANE 5 R/B - Visible Passes

Search period start: 18 January 2026 00:00
Search period end: 28 January 2026 00:00
Orbit: 260 x 29233 km, 6.3° (Epoch: 17 January)

Date Brightness Start Highest point End Pass type
(mag) Time Alt. Az. Time Alt. Az. Time Alt. Az.
18 Jan ? 03:02:44 52° WNW 04:57:17 84° NW 10:30:27 10° E visible
18 Jan ? 19:20:06 10° W 19:22:10 77° N 19:23:38 33° ENE visible
19 Jan ? 04:30:57 23° W 06:20:09 58° W 12:03:27 10° ESE visible
19 Jan ? 20:51:22 10° W 21:29:43 - E 20:51:32 12° W visible
20 Jan ? 02:10:06 10° E 02:35:21 10° E 02:57:15 10° E visible
20 Jan ? 22:57:52 30° E 22:57:52 30° E 05:49:36 10° E visible
22 Jan ? 00:25:56 61° ENE 00:25:56 61° ENE 07:36:44 10° E visible
23 Jan ? 01:53:59 76° NW 02:05:53 81° N 09:14:31 10° E visible
24 Jan ? 03:21:59 46° WNW 05:05:03 77° WNW 10:48:38 10° E visible
24 Jan ? 19:37:32 10° W 19:40:00 64° N 19:41:04 46° ENE visible
25 Jan ? 04:49:57 18° W 06:37:51 50° W 12:20:54 10° ESE visible
25 Jan ? 21:08:28 10° W 21:48:33 11° E 04:04:19 10° E visible
26 Jan ? 23:16:25 38° E 23:16:25 38° E 06:12:44 10° E visible
